TimeAKDT,TemperatureF,Dew PointF,Humidity,Sea Level PressureIn,VisibilityMPH,Wind Direction,Wind SpeedMPH,Gust SpeedMPH,PrecipitationIn,Events,Conditions,WindDirDegrees,DateUTC
12:16 AM,35.6,12.2,38,30.18,10.0,NW,8.1,-,N/A,,Clear,320,2012-10-22 08:16:00
12:36 AM,35.6,12.2,38,30.18,10.0,NW,6.9,-,N/A,,Clear,320,2012-10-22 08:36:00
12:56 AM,35.6,12.2,38,30.18,10.0,NW,6.9,-,N/A,,Clear,320,2012-10-22 08:56:00
1:16 AM,37.4,12.2,36,30.18,10.0,NNW,10.4,-,N/A,,Clear,330,2012-10-22 09:16:00
1:36 AM,35.6,12.2,38,30.18,10.0,North,6.9,-,N/A,,Clear,360,2012-10-22 09:36:00
1:56 AM,33.8,10.4,38,30.18,10.0,NW,5.8,-,N/A,,Clear,320,2012-10-22 09:56:00
2:16 AM,35.6,12.2,38,30.18,10.0,North,4.6,-,N/A,,Clear,350,2012-10-22 10:16:00
2:36 AM,35.6,12.2,38,30.18,10.0,NNW,5.8,-,N/A,,Clear,340,2012-10-22 10:36:00
2:56 AM,35.6,12.2,38,30.17,10.0,North,11.5,-,N/A,,Clear,350,2012-10-22 10:56:00
3:16 AM,37.4,12.2,36,30.17,10.0,North,10.4,-,N/A,,Clear,350,2012-10-22 11:16:00
3:36 AM,35.6,12.2,38,30.16,10.0,NNW,9.2,-,N/A,,Clear,340,2012-10-22 11:36:00
3:56 AM,35.6,12.2,38,30.16,10.0,North,8.1,-,N/A,,Clear,360,2012-10-22 11:56:00
4:16 AM,37.4,10.4,33,30.16,10.0,NNW,13.8,-,N/A,,Clear,340,2012-10-22 12:16:00
4:36 AM,37.4,10.4,33,30.16,10.0,NNW,12.7,16.1,N/A,,Clear,330,2012-10-22 12:36:00
4:56 AM,35.6,10.4,35,30.16,10.0,North,10.4,-,N/A,,Clear,350,2012-10-22 12:56:00
5:16 AM,37.4,10.4,33,30.16,10.0,North,11.5,18.4,N/A,,Clear,360,2012-10-22 13:16:00
5:36 AM,37.4,10.4,33,30.15,10.0,North,10.4,-,N/A,,Clear,350,2012-10-22 13:36:00
6:16 AM,35.6,10.4,35,30.16,10.0,NW,6.9,-,N/A,,Clear,320,2012-10-22 14:16:00
6:36 AM,35.6,10.4,35,30.16,10.0,NNW,11.5,-,N/A,,Clear,340,2012-10-22 14:36:00
6:56 AM,35.6,10.4,35,30.16,10.0,North,9.2,-,N/A,,Clear,360,2012-10-22 14:56:00
7:16 AM,35.6,10.4,35,30.16,10.0,North,6.9,-,N/A,,Clear,360,2012-10-22 15:16:00
7:36 AM,35.6,10.4,35,30.16,10.0,North,8.1,-,N/A,,Clear,350,2012-10-22 15:36:00
7:56 AM,33.8,10.4,38,30.15,10.0,North,6.9,-,N/A,,Clear,350,2012-10-22 15:56:00
8:16 AM,35.6,10.4,35,30.15,10.0,NNW,9.2,-,N/A,,Clear,340,2012-10-22 16:16:00
8:36 AM,35.6,10.4,35,30.16,10.0,NNW,5.8,-,N/A,,Clear,340,2012-10-22 16:36:00
8:56 AM,35.6,12.2,38,30.16,10.0,NNW,9.2,-,N/A,,Clear,340,2012-10-22 16:56:00
9:16 AM,37.4,12.2,36,30.16,10.0,North,6.9,-,N/A,,Clear,360,2012-10-22 17:16:00
9:36 AM,39.2,12.2,33,30.15,10.0,NNW,6.9,-,N/A,,Clear,330,2012-10-22 17:36:00
9:56 AM,39.2,12.2,33,30.15,10.0,North,13.8,-,N/A,,Clear,350,2012-10-22 17:56:00
10:16 AM,39.2,12.2,33,30.15,10.0,North,9.2,17.3,N/A,,Clear,350,2012-10-22 18:16:00
10:36 AM,39.2,12.2,33,30.15,10.0,North,9.2,-,N/A,,Clear,350,2012-10-22 18:36:00
10:56 AM,41.0,12.2,31,30.14,10.0,North,6.9,-,N/A,,Clear,350,2012-10-22 18:56:00
11:16 AM,42.8,12.2,29,30.14,10.0,NNW,9.2,-,N/A,,Clear,340,2012-10-22 19:16:00
11:36 AM,42.8,12.2,29,30.14,10.0,North,9.2,-,N/A,,Clear,360,2012-10-22 19:36:00
11:56 AM,42.8,12.2,29,30.13,10.0,NNW,13.8,-,N/A,,Clear,340,2012-10-22 19:56:00
12:16 PM,42.8,12.2,29,30.13,10.0,North,11.5,-,N/A,,Clear,10,2012-10-22 20:16:00
12:36 PM,42.8,12.2,29,30.13,10.0,North,9.2,-,N/A,,Clear,10,2012-10-22 20:36:00
12:56 PM,42.8,12.2,29,30.12,10.0,NNE,10.4,20.7,N/A,,Clear,20,2012-10-22 20:56:00
1:16 PM,42.8,12.2,29,30.12,10.0,North,8.1,-,N/A,,Clear,10,2012-10-22 21:16:00
1:36 PM,42.8,12.2,29,30.11,10.0,NNE,12.7,16.1,N/A,,Clear,20,2012-10-22 21:36:00
1:56 PM,42.8,12.2,29,30.11,10.0,NE,9.2,-,N/A,,Clear,40,2012-10-22 21:56:00
2:16 PM,42.8,12.2,29,30.11,10.0,North,12.7,16.1,N/A,,Clear,10,2012-10-22 22:16:00
2:36 PM,44.6,14.0,29,30.10,10.0,NNE,9.2,17.3,N/A,,Clear,30,2012-10-22 22:36:00
2:56 PM,44.6,12.2,27,30.09,10.0,NNE,6.9,-,N/A,,Clear,30,2012-10-22 22:56:00
3:16 PM,44.6,14.0,29,30.09,10.0,ENE,6.9,-,N/A,,Clear,60,2012-10-22 23:16:00
3:36 PM,42.8,14.0,31,30.08,10.0,NNE,8.1,-,N/A,,Clear,30,2012-10-22 23:36:00
3:56 PM,42.8,14.0,31,30.08,10.0,NNE,9.2,-,N/A,,Clear,30,2012-10-22 23:56:00
4:16 PM,42.8,12.2,29,30.08,10.0,North,9.2,-,N/A,,Clear,10,2012-10-23 00:16:00
4:36 PM,42.8,12.2,29,30.08,10.0,North,6.9,-,N/A,,Clear,10,2012-10-23 00:36:00
4:56 PM,42.8,14.0,31,30.08,10.0,NNW,5.8,-,N/A,,Clear,340,2012-10-23 00:56:00
5:16 PM,41.0,12.2,31,30.08,10.0,North,8.1,-,N/A,,Clear,350,2012-10-23 01:16:00
5:36 PM,39.2,12.2,33,30.08,10.0,North,5.8,-,N/A,,Clear,10,2012-10-23 01:36:00
5:56 PM,39.2,12.2,33,30.07,10.0,NNW,8.1,-,N/A,,Clear,340,2012-10-23 01:56:00
6:16 PM,39.2,12.2,33,30.07,10.0,NNE,6.9,-,N/A,,Clear,30,2012-10-23 02:16:00
6:36 PM,39.2,12.2,33,30.07,10.0,North,6.9,-,N/A,,Clear,360,2012-10-23 02:36:00
6:56 PM,39.2,12.2,33,30.07,10.0,NNW,3.5,-,N/A,,Clear,340,2012-10-23 02:56:00
7:16 PM,37.4,12.2,36,30.07,10.0,NE,3.5,-,N/A,,Clear,50,2012-10-23 03:16:00
7:36 PM,39.2,12.2,33,30.07,10.0,NNE,9.2,-,N/A,,Clear,20,2012-10-23 03:36:00
7:56 PM,39.2,12.2,33,30.06,10.0,NNE,8.1,-,N/A,,Clear,20,2012-10-23 03:56:00
8:16 PM,39.2,12.2,33,30.06,10.0,North,5.8,-,N/A,,Clear,360,2012-10-23 04:16:00
8:36 PM,39.2,12.2,33,30.06,10.0,North,6.9,-,N/A,,Clear,10,2012-10-23 04:36:00
8:56 PM,37.4,12.2,36,30.06,10.0,North,8.1,-,N/A,,Clear,360,2012-10-23 04:56:00
9:16 PM,37.4,12.2,36,30.06,10.0,North,6.9,-,N/A,,Clear,360,2012-10-23 05:16:00
9:36 PM,39.2,12.2,33,30.06,10.0,North,9.2,-,N/A,,Clear,350,2012-10-23 05:36:00
9:56 PM,39.2,12.2,33,30.06,10.0,North,6.9,-,N/A,,Clear,350,2012-10-23 05:56:00
10:16 PM,39.2,12.2,33,30.06,10.0,North,10.4,-,N/A,,Clear,350,2012-10-23 06:16:00
10:36 PM,39.2,12.2,33,30.05,10.0,North,8.1,-,N/A,,Clear,350,2012-10-23 06:36:00
10:56 PM,37.4,12.2,36,30.06,10.0,NW,6.9,-,N/A,,Clear,320,2012-10-23 06:56:00
11:16 PM,35.6,14.0,41,30.06,10.0,NW,6.9,-,N/A,,Clear,320,2012-10-23 07:16:00
11:36 PM,33.8,14.0,44,30.06,10.0,NW,5.8,-,N/A,,Clear,320,2012-10-23 07:36:00
11:56 PM,33.8,14.0,44,30.06,10.0,NNW,6.9,-,N/A,,Clear,330,2012-10-23 07:56:00